Regional Weather Roundup
Issued by NWS

Home | Current Version | Previous Version | Graphics & Text | Print | Product List | Glossary On
Versions: 1 2 3 4 5 6 7 8 9 10 11 12 13 14 15 16 17 18 19 20 21 22 23 24 25 26 27 28 29 30 31 32 33 34 35 36 37 38 39 40 41 42 43 44 45 46 47 48 49 50
000
ASUS43 KLMK 210710
RWRKY
KENTUCKY REGIONAL WEATHER ROUNDUP
NATIONAL WEATHER SERVICE LOUISVILLE KY
300 AM EDT SUN SEP 21 2014

NOTE "FAIR" INDICATES FEW OR NO CLOUDS BELOW 12,000 FEET
WITH NO SIGNIFICANT WEATHER AND/OR OBSTRUCTIONS TO VISIBILITY.

KYZ001>023-026-027-061>063-070>075-210800-
WESTERN AND SOUTH CENTRAL KENTUCKY

CITY           SKY/WX    TMP DP  RH WIND       PRES   REMARKS
PADUCAH        CLEAR     75  67  76 SW7       29.95F
HENDERSON      PTCLDY    70  64  83 SW7       29.92F
OWENSBORO      CLEAR     69  66  90 SW7       29.93F
HOPKINSVILLE   CLEAR     68  68 100 SW7       29.97F
BOWLING GREEN  CLEAR     69  65  86 CALM      29.96F
GLASGOW        CLEAR     67  67 100 CALM      29.96F
$$

KYZ024-025-028>034-038-045-046-053-210800-
NORTH CENTRAL KENTUCKY

CITY           SKY/WX    TMP DP  RH WIND       PRES   REMARKS
LOUISVILLE/SDF PTCLDY    73  66  78 SW8       29.91F
LOUISVILLE/LOU CLEAR     71  65  81 S3        29.92F
FORT KNOX      CLEAR     67  64  90 SW8       29.92F
$$

KYZ035>037-039>044-047>052-055>060-089>105-210800-
NORTHEAST KENTUCKY

CITY           SKY/WX    TMP DP  RH WIND       PRES   REMARKS
LEXINGTON      CLEAR     70  63  78 SW9       29.93F
COVINGTON      PTCLDY    69  64  84 S8        29.87F
FRANKFORT      CLEAR     68  64  87 SW7       29.91F
$$

KYZ054-064>069-076>088-106>120-210800-
SOUTHEAST KENTUCKY

CITY           SKY/WX    TMP DP  RH WIND       PRES   REMARKS
JACKSON        PTCLDY    65  62  90 VRB3      29.98F
LONDON         MOCLDY    64  60  87 CALM      30.00F
SOMERSET       CLEAR     63  63 100 CALM      30.00F FOG
MIDDLESBORO    PTCLDY    59  58  97 CALM      30.03F
MONTICELLO     SUNNY     61  61 100 CALM      30.01F FOG
$$




USA.gov is the U.S. government's official web portal to all federal, state and local government web resources and services.